(223402) = 2003 SN130 = 2005 YG130

Discovered at Socorro on 2003-09-20 by LINEAR.

Orbit

Orbit type: Main Belt

Note: WebGL enabled browser required.

epoch2023-02-25.0
epoch JD2460000.5
perihelion date2019-12-06.44054
perihelion JD2458823.94054
argument of perihelion (°)346.86584
ascending node (°)311.85053
inclination (°)25.88022
eccentricity0.0890906
perihelion distance (AU)2.8796796
Tisserand w.r.t. Jupiter3.0
ΔV w.r.t. Earth (km/sec)13.3
semimajor axis (AU)3.1613240
mean anomaly (°)206.30712
mean daily motion (°/day)0.17534780
aphelion distance (AU)3.443
period (years)5.62
P-vector [x]0.49744968
P-vector [y]-0.75123630
P-vector [z]-0.43380622
Q-vector [x]0.80425727
Q-vector [y]0.21195617
Q-vector [z]0.55519801
absolute magnitude15.13
phase slope0.15
uncertainty0
referenceMPEC 2023-F20
observations used419
oppositions11
arc length (days)7143
first opposition used2003
last opposition used2023
residual rms (arc-secs)0.80
perturbers coarse indicatorM-v
perturbers precise indicator003Ek
first observation date used2003-08-25.0
last observation date used2023-03-16.0
computer nameMPCLINUX
JD of orbit computation2456966.781702
perihelion JD uncertainty (days)3.2978E-04
argument of perihelion uncertainty (°)6.2939E-05
ascending node uncertainty (°)1.1122E-05
inclination uncertainty (°)1.5765E-05
eccentricity uncertainty 1.6962E-07
perihelion distance uncertainty (AU)5.5498E-07
Minimum Orbit Intersection Distances (in AU)
for orbit epoch: 2460000.5, reference: E2023-F20
Mercury2.43393
Venus2.15239
Earth1.86713
Mars1.48075
Jupiter1.849
Saturn5.70597
Uranus15.1053
Neptune26.8586

Observations

427 total observations over interval: 2003 08 25.22860 – 2023 03 16.274256
These data are available for download (format description).

Date (UT) J2000 RA J2000 Dec Magn Location Ref
2003 08 25.22860 22 29 32.55 +10 44 42.5 19.2   644 – Palomar Mountain/NEAT MPS 96627
2003 08 25.29602 22 29 28.42 +10 44 54.1 19.0   644 – Palomar Mountain/NEAT MPS 96627
2003 08 25.36326 22 29 24.30 +10 45 05.5 19.2   644 – Palomar Mountain/NEAT MPS 96627
2003 08 27.53004 22 27 13.73 +10 50 50.2 21.3   608 – Haleakala-AMOS MPS 96627
2003 08 27.54074 22 27 13.09 +10 50 51.9 21.2   608 – Haleakala-AMOS MPS 96627
2003 08 27.55166 22 27 12.39 +10 50 53.8 20.7   608 – Haleakala-AMOS MPS 96627
2003 09 20.24734 22 05 00.12 +11 03 03.0 19.4   704 – Lincoln Laboratory ETS, New Mexico MPS 85491
2003 09 20.25986 22 04 59.40 +11 03 04.8 19.6   704 – Lincoln Laboratory ETS, New Mexico MPS 85491
2003 09 20.27218 22 04 58.92 +11 03 01.0 19.2   704 – Lincoln Laboratory ETS, New Mexico MPS 85491
2003 09 20.28434 22 04 58.32 +11 03 02.6 20.2   704 – Lincoln Laboratory ETS, New Mexico MPS 85491
2003 09 21.17595 22 04 16.79 +11 02 03.3 18.8   644 – Palomar Mountain/NEAT MPS 85491
2003 09 21.19735 22 04 15.77 +11 02 01.8 19.0   644 – Palomar Mountain/NEAT MPS 85491
2003 09 21.21861 22 04 14.77 +11 02 00.3 19.2   644 – Palomar Mountain/NEAT MPS 85491
2005 12 24.34301 09 22 04.99 +19 50 44.1   291 – LPL/Spacewatch II MPS 157900
2005 12 24.35353 09 22 04.64 +19 50 43.0   291 – LPL/Spacewatch II MPS 157900
2005 12 24.36384 09 22 04.35 +19 50 41.9   291 – LPL/Spacewatch II MPS 157900
2005 12 30.45686 09 18 36.07 +19 40 25.6 20.7 V G96 – Mt. Lemmon Survey MPS 157750
2005 12 30.46595 09 18 35.64 +19 40 24.4 21.0 V G96 – Mt. Lemmon Survey MPS 157750
2005 12 30.47461 09 18 35.35 +19 40 23.7 20.5 V G96 – Mt. Lemmon Survey MPS 157750
2005 12 30.48323 09 18 35.01 +19 40 23.5 20.5 V 691 – Steward Observatory, Kitt Peak-Spacewatch MPS 157900
2005 12 30.48547 09 18 34.95 +19 40 22.8 20.1 V G96 – Mt. Lemmon Survey MPS 157750
2005 12 30.50060 09 18 34.32 +19 40 21.9 20.5 V 691 – Steward Observatory, Kitt Peak-Spacewatch MPS 157900
2005 12 30.51797 09 18 33.64 +19 40 20.0 20.5 V 691 – Steward Observatory, Kitt Peak-Spacewatch MPS 157900
2006 01 09.39371 09 11 19.93 +19 26 06.5 19.7 V G96 – Mt. Lemmon Survey MPS 158947
2006 01 09.39881 09 11 19.71 +19 26 06.2 19.9 V G96 – Mt. Lemmon Survey MPS 158947
2006 01 09.40392 09 11 19.42 +19 26 05.9 19.9 V G96 – Mt. Lemmon Survey MPS 158947
2006 01 09.40902 09 11 19.17 +19 26 05.9 20.3 V G96 – Mt. Lemmon Survey MPS 158947
2006 01 10.38979 09 10 30.39 +19 24 46.2 20.3 V G96 – Mt. Lemmon Survey MPS 158947
2006 01 10.39753 09 10 30.00 +19 24 45.6 20.5 V G96 – Mt. Lemmon Survey MPS 158947
2006 01 10.40531 09 10 29.56 +19 24 44.9 20.1 V G96 – Mt. Lemmon Survey MPS 158947
2006 01 10.41322 09 10 29.20 +19 24 43.9 20.2 V G96 – Mt. Lemmon Survey MPS 158947
2006 01 25.18753 08 56 47.23 +19 04 48.7   691 – Steward Observatory, Kitt Peak-Spacewatch MPS 160408
2006 01 25.20474 08 56 46.20 +19 04 47.7   691 – Steward Observatory, Kitt Peak-Spacewatch MPS 160408
2006 01 25.22201 08 56 45.09 +19 04 46.4   691 – Steward Observatory, Kitt Peak-Spacewatch MPS 160408
2006 01 27.35774 08 54 37.40 +19 01 40.3 20.1   704 – Lincoln Laboratory ETS, New Mexico MPS 161771
2006 01 27.38354 08 54 35.79 +19 01 38.4 20.2   704 – Lincoln Laboratory ETS, New Mexico MPS 161771
2006 01 27.39654 08 54 35.02 +19 01 36.0 20.2   704 – Lincoln Laboratory ETS, New Mexico MPS 161771
2006 01 30.18536 08 51 47.47 +18 57 21.6 20.2 V 691 – Steward Observatory, Kitt Peak-Spacewatch MPS 161771
2006 01 30.20270 08 51 46.39 +18 57 19.9 19.9 V 691 – Steward Observatory, Kitt Peak-Spacewatch MPS 161771
2006 01 30.22005 08 51 45.35 +18 57 18.5 20.0 V 691 – Steward Observatory, Kitt Peak-Spacewatch MPS 161771
2006 02 02.32355 08 48 38.52 +18 52 18.6 20.0 V 703 – Catalina Sky Survey MPS 161771
2006 02 02.33097 08 48 38.12 +18 52 17.3 19.9 V 703 – Catalina Sky Survey MPS 161771
2006 02 02.33841 08 48 37.65 +18 52 16.9 19.9 V 703 – Catalina Sky Survey MPS 161771
2006 02 02.34582 08 48 37.11 +18 52 16.9 19.6 V 703 – Catalina Sky Survey MPS 161771
2006 02 23.27928 08 29 33.10 +18 09 05.5 20.5 V G96 – Mt. Lemmon Survey MPS 163791
2006 02 23.28531 08 29 32.85 +18 09 04.1 20.5 V G96 – Mt. Lemmon Survey MPS 163791
2006 02 23.29131 08 29 32.56 +18 09 03.4 20.7 V G96 – Mt. Lemmon Survey MPS 163791
2006 02 23.29742 08 29 32.28 +18 09 02.5 20.9 V G96 – Mt. Lemmon Survey MPS 163791
2008 06 26.64505 19 39 58.21 -40 46 54.5 18.8 V E12 – Siding Spring Survey MPS 252432
2008 06 26.65642 19 39 57.38 -40 46 53.2 19.1 V E12 – Siding Spring Survey MPS 252432
2008 06 26.66748 19 39 56.59 -40 46 51.1 18.9 V E12 – Siding Spring Survey MPS 252432
2009 08 20.96116 00 36 24.01 +34 07 34.3 20.0 V A50 – Andrushivka Astronomical Observatory MPS 292592
2009 08 20.96251 00 36 23.98 +34 07 34.8 19.7 V A50 – Andrushivka Astronomical Observatory MPS 292592
2009 08 20.96387 00 36 23.88 +34 07 36.3 20.1 V A50 – Andrushivka Astronomical Observatory MPS 292592
2009 08 20.99693 00 36 22.98 +34 07 55.0 19.6 V A50 – Andrushivka Astronomical Observatory MPS 292592
2009 09 18.23611 00 14 53.52 +37 01 46.9 20.2 V 703 – Catalina Sky Survey MPS 294972
2009 09 18.24458 00 14 53.01 +37 01 47.0 20.1 V 703 – Catalina Sky Survey MPS 294972
2009 09 18.25306 00 14 52.44 +37 01 48.2 20.1 V 703 – Catalina Sky Survey MPS 294972
2009 09 18.26152 00 14 51.93 +37 01 50.0 20.1 V 703 – Catalina Sky Survey MPS 294972
2009 09 26.26008 00 06 41.18 +37 11 02.9 19.6 V 703 – Catalina Sky Survey MPS 296885
2009 09 26.26742 00 06 40.89 +37 11 01.9 19.5 V 703 – Catalina Sky Survey MPS 296885
2009 09 26.27479 00 06 40.32 +37 11 01.1 19.4 V 703 – Catalina Sky Survey MPS 296885
2009 09 26.28229 00 06 39.88 +37 11 01.2 19.5 V 703 – Catalina Sky Survey MPS 296885
2009 10 15.13361 23 48 15.04 +36 21 41.5 19.8 V 703 – Catalina Sky Survey MPS 299336
2009 10 15.13962 23 48 14.79 +36 21 38.6 19.8 V 703 – Catalina Sky Survey MPS 299336
2009 10 15.14571 23 48 14.50 +36 21 38.8 20.0 V 703 – Catalina Sky Survey MPS 299336
2009 10 15.15181 23 48 14.29 +36 21 36.8 19.6 V 703 – Catalina Sky Survey MPS 299336
2009 10 18.22241 23 45 41.51 +36 05 40.8 19.9   704 – Lincoln Laboratory ETS, New Mexico MPS 299336
2009 10 18.23565 23 45 40.79 +36 05 35.8 20.0   704 – Lincoln Laboratory ETS, New Mexico MPS 299336
2009 10 18.24888 23 45 40.23 +36 05 32.3 20.2   704 – Lincoln Laboratory ETS, New Mexico MPS 299336
2009 10 18.26213 23 45 39.51 +36 05 28.2 20.1   704 – Lincoln Laboratory ETS, New Mexico MPS 299336
2009 10 18.27536 23 45 38.76 +36 05 22.3 20.1   704 – Lincoln Laboratory ETS, New Mexico MPS 299336
2012 04 08.002512 09 25 07.01 -00 47 19.3 20.8 i 309 – Cerro Paranal MPS 804483
2012 04 08.005776 09 25 06.96 -00 47 19.2 21.1 i 309 – Cerro Paranal MPS 804483
2012 04 08.009051 09 25 06.92 -00 47 19.1 21.1 i 309 – Cerro Paranal MPS 804483
2012 04 08.015857 09 25 06.82 -00 47 18.7 21.0 i 309 – Cerro Paranal MPS 804483
2014 07 09.50602 21 56 12.011 -10 56 46.29 19.2 i F51 – Pan-STARRS 1, Haleakala MPS 523328
2014 07 09.53010 21 56 11.116 -10 56 38.16 19.4 i F51 – Pan-STARRS 1, Haleakala MPS 523328
2014 07 09.54215 21 56 10.680 -10 56 34.03 19.1 i F51 – Pan-STARRS 1, Haleakala MPS 523328
2014 07 25.10445 21 44 26.32 -09 37 01.1 19.2 R J04 – ESA Optical Ground Station, Tenerife MPS 527774
2014 07 25.11614 21 44 25.66 -09 36 57.6 19.3 R J04 – ESA Optical Ground Station, Tenerife MPS 527774
2014 07 25.12783 21 44 25.00 -09 36 54.4 19.0 R J04 – ESA Optical Ground Station, Tenerife MPS 527774
2014 07 25.13952 21 44 24.34 -09 36 50.9 19.0 R J04 – ESA Optical Ground Station, Tenerife MPS 527774
2014 07 25.31762 21 44 14.78 -09 36 02.2 19.5 r G45 – Space Surveillance Telescope, Atom Site MPS 535857
2014 07 25.31900 21 44 14.71 -09 36 01.5 19.3 r G45 – Space Surveillance Telescope, Atom Site MPS 535857
2014 07 25.33066 21 44 14.05 -09 35 58.3 19.4 r G45 – Space Surveillance Telescope, Atom Site MPS 535857
2014 07 25.33207 21 44 13.99 -09 35 58.5 19.4 r G45 – Space Surveillance Telescope, Atom Site MPS 535857
2014 07 25.34360 21 44 13.34 -09 35 55.0 19.5 r G45 – Space Surveillance Telescope, Atom Site MPS 535857
2014 07 25.35630 21 44 12.62 -09 35 51.1 19.4 r G45 – Space Surveillance Telescope, Atom Site MPS 535857
